Location: Vlissingen
(51.4500°N, 3.5830°E)
Time: 12:14:49
(UTC+01:00)

N. Korean satellite - Pass Details

Date: 30 November 2021
Orbit: 447 x 490 km, 97.3° (Epoch: 27 January)

Event Time Altitude Azimuth Distance (km) Brightness Sun altitude
Rises 18:21:36 0° 215° (SW) 2,542 11.1 -14.9°
Reaches altitude 10° 18:24:51 10° 248° (WSW) 1,657 10.6 -15.4°
Maximum altitude 18:26:16 12° 272° (W) 1,536 10.2 -15.6°
Drops below altitude 10° 18:27:41 10° 295° (WNW) 1,652 10.0 -15.8°
Sets 18:30:55 0° 328° (NNW) 2,524 10.4 -16.3°
